Tracking 25648 objects as of 17-May-2022
HD Live streaming from Space Station
objects crossing your sky now

COSMOS 2251 DEB

Track COSMOS 2251 DEB now!
10-day predictions


NORAD ID: 39585
Int'l Code: 1993-036BUQ
Perigee: 668.7 km
Apogee: 772.2 km
Inclination: 74.0 °
Period: 99.1 minutes
Semi major axis: 7091 km
RCS: 0.0032 m2 (small)
Launch date: June 16, 1993
Source: Commonwealth of Independent States (former USSR) (CIS)
Launch site: PLESETSK MISSILE AND SPACE COMPLEX (PKMTR)

Note: This is SATELLITE DEBRIS
aabbcc
Your satellite tracking list
Your tracking list is empty




NASA's NSSDC Master Catalog

Two Line Element Set (TLE):
1 39585U 93036BUQ 22133.62737332  .00000521  00000-0  12693-3 0  9997
2 39585  74.0428 262.2119 0072982 354.8537   5.1866 14.53772139434697
Source of the keplerian elements: AFSPC